QPF
0.02 0.02 0.02 0.02 0.02 0.02 0.02 0.03 0.04 0.02 0.02 0.02 0.02 0.01 0.03 0.06 0.06 0.05 0.03 0.03 0.04 0.06 0.07 0.07 0.07 0.10 0.16 0.16 0.08 0.06 0.07 0.06 0.07 0.06 0.06 0.05 0.10 0.14 0.15 0.12 0.09 0.07 0.07
0.00 0.01 0.01 0.01 0.01 0.02 0.03 0.06 0.07 0.06 0.05 0.05 0.04 0.02 0.03 0.07 0.09 0.10 0.05 0.04 0.05 0.05 0.05 0.06 0.08 0.14 0.18 0.14 0.10 0.10 0.11 0.09 0.08 0.07 0.06 0.05 0.06 0.08 0.10 0.09 0.08 0.07 0.07
0.00 0.00 0.01 0.01 0.01 0.02 0.06 0.10 0.16 0.15 0.12 0.08 0.05 0.03 0.03 0.04 0.06 0.11 0.09 0.07 0.06 0.05 0.04 0.05 0.09 0.14 0.13 0.13 0.11 0.12 0.12 0.11 0.08 0.07 0.07 0.06 0.05 0.07 0.11 0.11 0.10 0.08 0.06
0.00 0.00 0.01 0.01 0.01 0.05 0.07 0.10 0.15 0.16 0.13 0.09 0.07 0.03 0.02 0.02 0.03 0.05 0.08 0.09 0.07 0.07 0.09 0.11 0.10 0.10 0.09 0.10 0.10 0.10 0.09 0.10 0.13 0.11 0.10 0.08 0.06 0.07 0.09 0.10 0.10 0.09 0.08
0.00 0.00 0.00 0.01 0.03 0.08 0.07 0.07 0.09 0.12 0.12 0.09 0.06 0.03 0.03 0.02 0.02 0.04 0.06 0.09 0.08 0.07 0.09 0.12 0.12 0.10 0.09 0.11 0.11 0.10 0.09 0.08 0.10 0.11 0.10 0.08 0.06 0.06 0.07 0.08 0.09 0.09 0.09
0.01 0.02 0.02 0.03 0.06 0.09 0.06 0.05 0.06 0.08 0.10 0.08 0.05 0.03 0.02 0.02 0.02 0.05 0.06 0.09 0.10 0.08 0.06 0.08 0.10 0.11 0.11 0.13 0.12 0.09 0.09 0.10 0.10 0.10 0.09 0.08 0.07 0.07 0.09 0.10 0.12 0.12 0.12
0.01 0.03 0.04 0.07 0.08 0.07 0.05 0.03 0.04 0.05 0.06 0.05 0.03 0.02 0.01 0.02 0.03 0.06 0.08 0.08 0.10 0.10 0.05 0.05 0.10 0.13 0.12 0.12 0.11 0.10 0.12 0.12 0.11 0.10 0.09 0.06 0.06 0.09 0.10 0.10 0.12 0.11 0.09
0.00 0.01 0.05 0.08 0.07 0.05 0.04 0.04 0.04 0.03 0.03 0.03 0.03 0.03 0.03 0.02 0.03 0.06 0.08 0.09 0.09 0.11 0.09 0.08 0.08 0.10 0.10 0.11 0.12 0.12 0.12 0.10 0.09 0.08 0.06 0.06 0.06 0.06 0.05 0.06 0.08 0.07 0.06
0.00 0.01 0.02 0.06 0.07 0.06 0.04 0.04 0.04 0.04 0.05 0.05 0.04 0.04 0.04 0.03 0.03 0.04 0.04 0.05 0.06 0.07 0.08 0.08 0.09 0.10 0.09 0.08 0.08 0.08 0.08 0.08 0.08 0.07 0.06 0.05 0.05 0.05 0.04 0.05 0.05 0.07 0.06
0.00 0.00 0.01 0.04 0.07 0.06 0.05 0.02 0.02 0.04 0.05 0.04 0.04 0.04 0.03 0.02 0.02 0.03 0.05 0.04 0.03 0.03 0.04 0.04 0.06 0.07 0.06 0.05 0.04 0.04 0.05 0.05 0.06 0.06 0.06 0.05 0.05 0.05 0.05 0.04 0.05 0.07 0.06
0.01 0.00 0.02 0.03 0.06 0.07 0.05 0.03 0.02 0.02 0.02 0.02 0.03 0.03 0.03 0.03 0.02 0.02 0.04 0.04 0.03 0.02 0.02 0.03 0.04 0.04 0.04 0.03 0.03 0.03 0.03 0.03 0.05 0.06 0.06 0.05 0.04 0.04 0.03 0.03 0.04 0.04 0.05
0.01 0.01 0.02 0.03 0.04 0.06 0.05 0.03 0.02 0.02 0.02 0.03 0.04 0.03 0.03 0.03 0.02 0.02 0.03 0.03 0.03 0.02 0.01 0.02 0.02 0.03 0.03 0.03 0.02 0.02 0.01 0.01 0.02 0.02 0.02 0.02 0.03 0.04 0.05 0.07 0.06 0.04 0.05
0.01 0.01 0.01 0.02 0.02 0.04 0.04 0.03 0.03 0.02 0.03 0.04 0.04 0.03 0.02 0.02 0.02 0.02 0.02 0.02 0.03 0.01 0.01 0.01 0.01 0.01 0.01 0.01 0.01 0.01 0.01 0.01 0.01 0.01 0.01 0.01 0.01 0.02 0.03 0.11 0.12 0.10 0.13
0.01 0.01 0.01 0.01 0.02 0.02 0.03 0.03 0.03 0.03 0.03 0.03 0.03 0.03 0.03 0.02 0.01 0.02 0.02 0.03 0.04 0.03 0.02 0.01 0.01 0.00 0.00 0.00 0.01 0.01 0.01 0.01 0.01 0.00 0.01 0.01 0.01 0.01 0.02 0.09 0.14 0.14 0.15
0.01 0.01 0.01 0.00 0.01 0.01 0.02 0.03 0.04 0.02 0.02 0.02 0.03 0.04 0.03 0.02 0.01 0.02 0.02 0.03 0.03 0.03 0.03 0.03 0.01 0.00 0.00 0.00 0.01 0.00 0.00 0.01 0.01 0.01 0.00 0.01 0.02 0.01 0.01 0.04 0.07 0.07 0.08
0.01 0.01 0.01 0.01 0.00 0.00 0.01 0.03 0.03 0.03 0.03 0.02 0.02 0.02 0.03 0.02 0.01 0.01 0.02 0.02 0.03 0.03 0.02 0.02 0.01 0.00 0.00 0.00 0.01 0.01 0.01 0.01 0.01 0.01 0.01 0.02 0.03 0.03 0.02 0.02 0.04 0.05 0.08
0.01 0.01 0.01 0.01 0.01 0.01 0.01 0.02 0.03 0.03 0.03 0.02 0.02 0.02 0.03 0.01 0.01 0.02 0.02 0.03 0.03 0.04 0.03 0.02 0.01 0.00 0.00 0.01 0.01 0.01 0.01 0.01 0.01 0.01 0.01 0.01 0.02 0.04 0.04 0.03 0.04 0.04 0.05
0.01 0.01 0.00 0.00 0.01 0.02 0.01 0.01 0.02 0.02 0.02 0.02 0.03 0.04 0.04 0.02 0.02 0.03 0.03 0.03 0.03 0.03 0.03 0.02 0.01 0.01 0.01 0.01 0.01 0.01 0.01 0.01 0.02 0.02 0.01 0.01 0.01 0.03 0.04 0.03 0.02 0.02 0.02
0.01 0.01 0.00 0.01 0.00 0.01 0.01 0.01 0.01 0.01 0.02 0.02 0.03 0.03 0.03 0.04 0.04 0.02 0.02 0.02 0.02 0.02 0.03 0.02 0.01 0.02 0.02 0.01 0.01 0.01 0.01 0.01 0.02 0.02 0.01 0.01 0.01 0.01 0.02 0.02 0.02 0.01 0.01
0.01 0.01 0.01 0.00 0.01 0.00 0.01 0.01 0.02 0.02 0.02 0.02 0.02 0.02 0.02 0.02 0.03 0.02 0.01 0.01 0.01 0.02 0.02 0.02 0.01 0.02 0.03 0.01 0.00 0.01 0.01 0.01 0.02 0.02 0.01 0.01 0.01 0.01 0.01 0.01 0.01 0.01 0.00
0.02 0.01 0.01 0.01 0.01 0.01 0.01 0.02 0.03 0.03 0.03 0.04 0.03 0.03 0.03 0.03 0.03 0.03 0.02 0.02 0.02 0.02 0.02 0.02 0.02 0.02 0.02 0.02 0.00 0.01 0.02 0.01 0.01 0.02 0.01 0.01 0.01 0.01 0.00 0.00 0.00 0.00 0.00
0.01 0.02 0.02 0.02 0.01 0.01 0.02 0.03 0.05 0.04 0.03 0.04 0.04 0.04 0.04 0.04 0.04 0.04 0.03 0.02 0.02 0.02 0.02 0.02 0.02 0.03 0.02 0.01 0.01 0.01 0.02 0.02 0.01 0.02 0.01 0.01 0.01 0.01 0.01 0.00 0.00 0.00 0.00
0.02 0.03 0.03 0.03 0.02 0.02 0.02 0.02 0.04 0.03 0.03 0.03 0.03 0.04 0.04 0.03 0.03 0.03 0.03 0.02 0.01 0.01 0.01 0.01 0.01 0.02 0.02 0.01 0.01 0.01 0.03 0.04 0.01 0.01 0.01 0.01 0.00 0.01 0.01 0.01 0.01 0.01 0.01
0.03 0.04 0.05 0.05 0.03 0.03 0.03 0.03 0.03 0.02 0.03 0.02 0.03 0.03 0.03 0.03 0.03 0.03 0.04 0.03 0.01 0.01 0.01 0.00 0.00 0.00 0.01 0.01 0.01 0.02 0.03 0.07 0.04 0.01 0.01 0.01 0.01 0.01 0.01 0.01 0.02 0.02 0.02
0.02 0.03 0.05 0.06 0.04 0.04 0.04 0.03 0.03 0.02 0.02 0.02 0.02 0.02 0.03 0.03 0.04 0.04 0.04 0.04 0.03 0.01 0.01 0.01 0.00 0.00 0.01 0.01 0.01 0.02 0.03 0.05 0.06 0.03 0.01 0.01 0.01 0.01 0.01 0.01 0.01 0.02 0.02
0.02 0.03 0.04 0.04 0.03 0.03 0.05 0.03 0.03 0.02 0.02 0.02 0.02 0.02 0.03 0.03 0.05 0.05 0.03 0.03 0.03 0.02 0.02 0.01 0.01 0.00 0.01 0.01 0.02 0.02 0.03 0.04 0.05 0.04 0.01 0.01 0.01 0.01 0.01 0.01 0.01 0.01 0.01
MSLP
1010.75 1010.90 1010.99 1011.03 1011.03 1011.04 1011.07 1011.14 1011.26 1011.42 1011.60 1011.78 1011.96 1012.13 1012.27 1012.39 1012.47 1012.49 1012.46 1012.34 1012.16 1011.91 1011.64 1011.39 1011.23 1011.20 1011.33 1011.63 1012.06 1012.57 1013.09 1013.55 1013.89 1014.09 1014.17 1014.16 1014.11 1014.07 1014.06 1014.09 1014.15 1014.20 1014.19
1011.10 1011.25 1011.35 1011.40 1011.42 1011.45 1011.48 1011.55 1011.66 1011.80 1011.97 1012.15 1012.34 1012.52 1012.68 1012.82 1012.92 1012.95 1012.91 1012.78 1012.58 1012.33 1012.06 1011.82 1011.68 1011.66 1011.79 1012.06 1012.44 1012.86 1013.26 1013.60 1013.82 1013.93 1013.96 1013.92 1013.89 1013.89 1013.93 1014.01 1014.10 1014.16 1014.13
1011.36 1011.50 1011.60 1011.67 1011.72 1011.77 1011.82 1011.90 1012.00 1012.14 1012.31 1012.49 1012.70 1012.90 1013.09 1013.26 1013.37 1013.41 1013.36 1013.23 1013.03 1012.77 1012.52 1012.31 1012.19 1012.19 1012.32 1012.55 1012.86 1013.17 1013.45 1013.65 1013.75 1013.76 1013.71 1013.65 1013.62 1013.65 1013.74 1013.86 1013.98 1014.04 1014.01
1011.54 1011.67 1011.78 1011.87 1011.95 1012.02 1012.09 1012.18 1012.29 1012.42 1012.58 1012.77 1012.98 1013.21 1013.42 1013.61 1013.74 1013.78 1013.74 1013.60 1013.40 1013.16 1012.92 1012.74 1012.65 1012.67 1012.80 1013.01 1013.24 1013.46 1013.61 1013.67 1013.64 1013.55 1013.44 1013.35 1013.32 1013.37 1013.49 1013.64 1013.78 1013.84 1013.81
1011.66 1011.77 1011.90 1012.02 1012.13 1012.23 1012.33 1012.42 1012.52 1012.64 1012.79 1012.97 1013.18 1013.41 1013.64 1013.83 1013.97 1014.01 1013.97 1013.83 1013.63 1013.41 1013.19 1013.04 1012.98 1013.03 1013.16 1013.33 1013.51 1013.64 1013.68 1013.63 1013.50 1013.32 1013.15 1013.03 1013.01 1013.07 1013.21 1013.38 1013.53 1013.59 1013.55
1011.74 1011.86 1012.00 1012.15 1012.30 1012.43 1012.55 1012.65 1012.73 1012.83 1012.95 1013.10 1013.29 1013.51 1013.73 1013.92 1014.05 1014.09 1014.04 1013.90 1013.70 1013.48 1013.29 1013.16 1013.13 1013.19 1013.33 1013.48 1013.61 1013.67 1013.64 1013.50 1013.29 1013.06 1012.85 1012.73 1012.71 1012.78 1012.94 1013.11 1013.25 1013.30 1013.25
1011.81 1011.92 1012.09 1012.28 1012.47 1012.64 1012.77 1012.87 1012.94 1013.00 1013.08 1013.20 1013.35 1013.54 1013.73 1013.91 1014.02 1014.05 1013.98 1013.83 1013.62 1013.40 1013.21 1013.10 1013.08 1013.16 1013.28 1013.43 1013.53 1013.55 1013.47 1013.29 1013.04 1012.79 1012.58 1012.45 1012.45 1012.54 1012.69 1012.86 1012.97 1013.00 1012.93
1011.86 1011.98 1012.17 1012.40 1012.62 1012.83 1012.98 1013.08 1013.13 1013.16 1013.20 1013.27 1013.38 1013.53 1013.70 1013.84 1013.94 1013.94 1013.85 1013.68 1013.45 1013.21 1013.01 1012.90 1012.87 1012.94 1013.06 1013.19 1013.28 1013.28 1013.17 1012.99 1012.74 1012.50 1012.31 1012.22 1012.23 1012.34 1012.49 1012.64 1012.73 1012.72 1012.61
1011.89 1012.01 1012.22 1012.47 1012.73 1012.97 1013.14 1013.25 1013.29 1013.30 1013.30 1013.34 1013.41 1013.53 1013.67 1013.79 1013.85 1013.83 1013.72 1013.51 1013.25 1012.99 1012.76 1012.61 1012.57 1012.61 1012.71 1012.82 1012.89 1012.88 1012.79 1012.61 1012.40 1012.20 1012.06 1012.01 1012.06 1012.18 1012.33 1012.46 1012.51 1012.46 1012.31
1011.89 1011.99 1012.20 1012.47 1012.76 1013.02 1013.22 1013.33 1013.38 1013.38 1013.37 1013.38 1013.44 1013.54 1013.66 1013.76 1013.81 1013.77 1013.63 1013.39 1013.09 1012.78 1012.51 1012.32 1012.22 1012.22 1012.28 1012.36 1012.41 1012.40 1012.32 1012.18 1012.02 1011.88 1011.79 1011.80 1011.89 1012.03 1012.19 1012.29 1012.31 1012.21 1012.02
1011.83 1011.91 1012.11 1012.38 1012.68 1012.96 1013.17 1013.31 1013.36 1013.37 1013.36 1013.38 1013.44 1013.54 1013.66 1013.76 1013.81 1013.76 1013.60 1013.33 1013.00 1012.64 1012.32 1012.06 1011.90 1011.84 1011.84 1011.87 1011.90 1011.88 1011.81 1011.70 1011.58 1011.50 1011.48 1011.54 1011.67 1011.84 1012.00 1012.10 1012.09 1011.96 1011.73
1011.75 1011.79 1011.96 1012.22 1012.51 1012.79 1013.01 1013.15 1013.22 1013.24 1013.26 1013.29 1013.37 1013.50 1013.64 1013.77 1013.82 1013.78 1013.61 1013.33 1012.97 1012.57 1012.19 1011.86 1011.63 1011.49 1011.43 1011.41 1011.39 1011.35 1011.27 1011.18 1011.09 1011.05 1011.08 1011.18 1011.35 1011.55 1011.72 1011.82 1011.80 1011.67 1011.42
1011.68 1011.68 1011.81 1012.03 1012.30 1012.56 1012.77 1012.91 1012.98 1013.02 1013.05 1013.12 1013.23 1013.39 1013.57 1013.73 1013.82 1013.80 1013.64 1013.36 1012.98 1012.55 1012.12 1011.74 1011.44 1011.22 1011.09 1010.99 1010.92 1010.83 1010.73 1010.63 1010.56 1010.53 1010.58 1010.72 1010.91 1011.13 1011.33 1011.44 1011.43 1011.30 1011.07
1011.68 1011.64 1011.72 1011.90 1012.12 1012.34 1012.52 1012.64 1012.70 1012.74 1012.79 1012.88 1013.02 1013.22 1013.44 1013.64 1013.77 1013.79 1013.66 1013.39 1013.01 1012.57 1012.11 1011.68 1011.32 1011.04 1010.83 1010.67 1010.52 1010.38 1010.24 1010.10 1010.00 1009.96 1010.01 1010.14 1010.34 1010.57 1010.79 1010.92 1010.94 1010.84 1010.64
1011.81 1011.74 1011.79 1011.92 1012.08 1012.24 1012.36 1012.43 1012.46 1012.48 1012.53 1012.62 1012.79 1013.01 1013.27 1013.51 1013.68 1013.74 1013.65 1013.41 1013.05 1012.61 1012.14 1011.70 1011.30 1010.97 1010.70 1010.47 1010.26 1010.05 1009.84 1009.64 1009.49 1009.40 1009.41 1009.51 1009.69 1009.91 1010.13 1010.28 1010.34 1010.29 1010.13
1012.12 1012.05 1012.07 1012.15 1012.25 1012.35 1012.39 1012.40 1012.37 1012.34 1012.36 1012.44 1012.60 1012.84 1013.12 1013.39 1013.59 1013.69 1013.64 1013.44 1013.11 1012.70 1012.25 1011.80 1011.39 1011.03 1010.72 1010.44 1010.16 1009.89 1009.60 1009.33 1009.09 1008.92 1008.85 1008.89 1009.01 1009.20 1009.41 1009.57 1009.66 1009.65 1009.55
1012.61 1012.57 1012.59 1012.64 1012.69 1012.71 1012.68 1012.61 1012.51 1012.42 1012.38 1012.42 1012.56 1012.79 1013.06 1013.34 1013.57 1013.69 1013.68 1013.53 1013.24 1012.87 1012.45 1012.03 1011.62 1011.26 1010.93 1010.61 1010.29 1009.95 1009.59 1009.23 1008.90 1008.63 1008.45 1008.39 1008.42 1008.55 1008.71 1008.86 1008.96 1008.98 1008.92
1013.27 1013.27 1013.31 1013.35 1013.36 1013.33 1013.24 1013.09 1012.91 1012.75 1012.65 1012.64 1012.73 1012.93 1013.18 1013.45 1013.68 1013.82 1013.84 1013.72 1013.48 1013.15 1012.77 1012.38 1012.01 1011.66 1011.33 1011.00 1010.66 1010.27 1009.85 1009.41 1008.97 1008.59 1008.28 1008.09 1008.01 1008.03 1008.11 1008.21 1008.29 1008.31 1008.27
1013.99 1014.06 1014.14 1014.20 1014.21 1014.14 1014.00 1013.79 1013.56 1013.33 1013.17 1013.11 1013.15 1013.30 1013.52 1013.77 1013.98 1014.12 1014.14 1014.05 1013.84 1013.55 1013.21 1012.86 1012.53 1012.21 1011.91 1011.59 1011.24 1010.83 1010.37 1009.86 1009.33 1008.83 1008.39 1008.06 1007.84 1007.73 1007.70 1007.71 1007.73 1007.72 1007.66
1014.71 1014.85 1014.99 1015.08 1015.10 1015.03 1014.88 1014.65 1014.38 1014.12 1013.91 1013.80 1013.80 1013.90 1014.08 1014.29 1014.47 1014.59 1014.61 1014.52 1014.32 1014.06 1013.76 1013.45 1013.15 1012.88 1012.61 1012.32 1011.98 1011.58 1011.09 1010.54 1009.94 1009.34 1008.78 1008.30 1007.93 1007.67 1007.50 1007.40 1007.33 1007.24 1007.13
1015.32 1015.54 1015.73 1015.88 1015.94 1015.90 1015.76 1015.54 1015.27 1015.01 1014.79 1014.65 1014.62 1014.68 1014.81 1014.97 1015.12 1015.20 1015.20 1015.09 1014.90 1014.64 1014.36 1014.07 1013.81 1013.57 1013.35 1013.10 1012.80 1012.42 1011.94 1011.37 1010.72 1010.05 1009.38 1008.78 1008.26 1007.84 1007.53 1007.29 1007.09 1006.91 1006.71
1015.77 1016.05 1016.30 1016.51 1016.63 1016.64 1016.55 1016.37 1016.14 1015.90 1015.69 1015.55 1015.50 1015.53 1015.63 1015.75 1015.84 1015.89 1015.84 1015.71 1015.49 1015.23 1014.95 1014.67 1014.43 1014.23 1014.04 1013.83 1013.58 1013.24 1012.79 1012.24 1011.58 1010.86 1010.12 1009.41 1008.76 1008.20 1007.73 1007.35 1007.02 1006.72 1006.43
1016.04 1016.37 1016.68 1016.94 1017.12 1017.20 1017.18 1017.07 1016.90 1016.70 1016.53 1016.41 1016.35 1016.37 1016.43 1016.51 1016.57 1016.56 1016.47 1016.30 1016.06 1015.77 1015.47 1015.19 1014.96 1014.77 1014.60 1014.44 1014.24 1013.95 1013.55 1013.03 1012.39 1011.66 1010.88 1010.10 1009.35 1008.67 1008.06 1007.54 1007.08 1006.66 1006.26
1016.16 1016.53 1016.88 1017.19 1017.43 1017.58 1017.64 1017.60 1017.50 1017.36 1017.23 1017.14 1017.09 1017.10 1017.15 1017.19 1017.21 1017.16 1017.03 1016.82 1016.54 1016.22 1015.89 1015.60 1015.35 1015.16 1015.01 1014.87 1014.71 1014.47 1014.13 1013.66 1013.06 1012.35 1011.56 1010.73 1009.91 1009.14 1008.43 1007.79 1007.21 1006.68 1006.18
1016.22 1016.60 1016.98 1017.33 1017.63 1017.84 1017.96 1017.99 1017.95 1017.87 1017.78 1017.72 1017.69 1017.70 1017.72 1017.75 1017.73 1017.65 1017.49 1017.25 1016.94 1016.59 1016.23 1015.90 1015.63 1015.42 1015.26 1015.13 1014.99 1014.80 1014.50 1014.09 1013.53 1012.85 1012.07 1011.24 1010.38 1009.54 1008.74 1008.01 1007.34 1006.72 1006.14
1016.28 1016.68 1017.09 1017.47 1017.80 1018.06 1018.22 1018.30 1018.31 1018.27 1018.21 1018.17 1018.15 1018.15 1018.17 1018.18 1018.15 1018.06 1017.88 1017.62 1017.28 1016.91 1016.52 1016.16 1015.85 1015.60 1015.42 1015.28 1015.13 1014.95 1014.69 1014.32 1013.80 1013.16 1012.40 1011.57 1010.69 1009.80 1008.95 1008.14 1007.40 1006.70 1006.06
Thickness
5729 5729 5727 5726 5725 5724 5722 5722 5722 5721 5721 5720 5720 5719 5719 5718 5717 5717 5716 5717 5718 5719 5720 5720 5720 5720 5719 5719 5718 5718 5717 5717 5717 5717 5717 5718 5718 5718 5717 5717 5718 5718 5718
5727 5726 5724 5723 5722 5721 5720 5719 5718 5717 5715 5715 5714 5713 5713 5713 5713 5712 5712 5712 5712 5713 5714 5715 5715 5715 5714 5714 5713 5713 5712 5712 5712 5712 5712 5712 5712 5712 5712 5712 5712 5713 5712
5725 5723 5721 5720 5719 5718 5717 5715 5714 5713 5711 5709 5708 5708 5708 5708 5708 5707 5707 5707 5707 5707 5708 5709 5710 5710 5709 5708 5708 5708 5707 5707 5707 5707 5706 5706 5707 5707 5707 5707 5707 5707 5707
5723 5720 5718 5717 5715 5714 5712 5711 5710 5707 5705 5703 5702 5702 5703 5703 5703 5702 5702 5702 5702 5702 5702 5703 5704 5704 5704 5703 5703 5702 5702 5702 5702 5702 5702 5702 5702 5702 5702 5702 5702 5702 5702
5720 5717 5715 5714 5712 5710 5708 5707 5705 5703 5700 5698 5698 5698 5698 5697 5697 5697 5697 5697 5697 5697 5697 5698 5698 5698 5698 5698 5698 5697 5696 5697 5696 5696 5696 5696 5696 5696 5696 5697 5697 5697 5696
5716 5714 5713 5711 5709 5706 5703 5701 5699 5698 5696 5695 5695 5693 5692 5692 5692 5692 5692 5692 5692 5693 5693 5693 5693 5692 5692 5692 5691 5691 5691 5691 5691 5691 5690 5691 5691 5691 5691 5691 5691 5691 5690
5713 5711 5709 5708 5705 5702 5700 5698 5695 5693 5692 5692 5688 5685 5686 5687 5687 5687 5687 5687 5688 5689 5689 5689 5688 5688 5687 5686 5685 5685 5685 5685 5685 5685 5685 5685 5685 5685 5686 5685 5685 5684 5684
5711 5709 5707 5704 5702 5699 5697 5695 5693 5689 5688 5689 5684 5679 5675 5675 5680 5683 5683 5683 5683 5684 5684 5684 5684 5683 5682 5681 5680 5679 5679 5679 5679 5679 5679 5679 5679 5680 5680 5680 5679 5678 5677
5708 5707 5704 5702 5700 5697 5694 5692 5691 5687 5683 5684 5684 5679 5672 5667 5670 5674 5677 5678 5679 5679 5679 5680 5679 5678 5678 5676 5675 5674 5674 5674 5674 5673 5673 5673 5673 5673 5674 5673 5673 5672 5671
5706 5704 5702 5700 5697 5695 5692 5690 5689 5686 5683 5679 5680 5681 5680 5676 5668 5665 5669 5673 5674 5675 5675 5675 5675 5674 5673 5671 5670 5669 5668 5668 5668 5668 5667 5667 5667 5667 5667 5667 5666 5666 5666
5704 5701 5699 5697 5695 5693 5691 5688 5686 5685 5683 5680 5678 5677 5676 5675 5673 5666 5661 5663 5667 5670 5671 5671 5671 5670 5669 5667 5665 5664 5664 5663 5662 5661 5661 5661 5661 5661 5661 5661 5660 5660 5660
5700 5698 5697 5695 5693 5690 5689 5687 5685 5683 5682 5680 5678 5676 5673 5670 5668 5665 5660 5659 5659 5663 5667 5667 5667 5666 5665 5663 5661 5659 5659 5658 5657 5656 5655 5655 5655 5655 5655 5655 5655 5654 5654
5694 5694 5694 5692 5690 5688 5686 5685 5683 5681 5680 5678 5677 5675 5674 5673 5671 5667 5662 5658 5657 5659 5662 5663 5664 5663 5661 5659 5657 5655 5654 5653 5652 5651 5650 5649 5649 5648 5648 5649 5648 5648 5648
5693 5693 5691 5689 5688 5686 5684 5682 5680 5680 5679 5677 5677 5675 5673 5672 5670 5667 5662 5657 5652 5652 5655 5656 5659 5659 5657 5655 5653 5652 5650 5649 5647 5646 5645 5644 5643 5643 5642 5642 5641 5641 5640
5692 5690 5688 5687 5685 5683 5682 5680 5677 5676 5676 5676 5674 5673 5671 5670 5669 5667 5664 5660 5653 5646 5646 5650 5652 5654 5654 5652 5650 5648 5646 5645 5643 5642 5641 5640 5639 5638 5637 5636 5635 5634 5634
5689 5687 5685 5683 5682 5680 5679 5676 5674 5674 5673 5672 5672 5670 5669 5668 5667 5665 5662 5660 5657 5651 5646 5648 5650 5651 5651 5649 5646 5644 5643 5641 5639 5638 5636 5635 5634 5633 5631 5630 5629 5628 5627
5686 5684 5682 5680 5678 5676 5675 5673 5671 5671 5670 5669 5669 5667 5666 5666 5664 5662 5660 5658 5656 5652 5646 5646 5648 5648 5647 5645 5642 5641 5639 5637 5635 5634 5632 5631 5629 5628 5626 5625 5624 5623 5622
5682 5680 5679 5676 5675 5672 5671 5669 5667 5667 5666 5665 5665 5664 5663 5662 5660 5659 5657 5655 5653 5651 5646 5642 5643 5643 5642 5641 5639 5638 5636 5633 5631 5630 5628 5627 5625 5623 5622 5620 5618 5617 5616
5678 5676 5674 5672 5670 5669 5667 5666 5664 5663 5663 5662 5662 5661 5660 5658 5655 5654 5653 5651 5649 5648 5645 5641 5639 5639 5638 5637 5635 5633 5632 5629 5627 5625 5624 5622 5620 5619 5617 5615 5613 5612 5611
5672 5670 5669 5668 5666 5664 5662 5661 5660 5659 5659 5659 5658 5658 5657 5655 5652 5651 5649 5647 5645 5642 5640 5638 5636 5634 5633 5632 5630 5626 5624 5624 5623 5622 5620 5617 5616 5614 5612 5611 5609 5607 5605
5668 5666 5664 5663 5661 5659 5657 5656 5654 5654 5654 5653 5653 5653 5652 5651 5650 5648 5646 5643 5641 5637 5635 5633 5631 5629 5627 5625 5624 5623 5619 5618 5617 5617 5614 5612 5611 5609 5608 5606 5604 5602 5600
5662 5661 5659 5657 5655 5654 5652 5651 5650 5649 5649 5648 5648 5647 5647 5646 5645 5644 5643 5641 5639 5635 5631 5629 5627 5625 5624 5623 5621 5620 5615 5612 5609 5611 5609 5607 5606 5604 5603 5601 5599 5597 5595
5657 5655 5654 5652 5649 5647 5647 5646 5645 5644 5644 5643 5643 5642 5642 5642 5640 5638 5637 5636 5634 5633 5631 5628 5625 5624 5623 5622 5618 5615 5612 5609 5606 5606 5604 5601 5601 5599 5598 5596 5595 5593 5590
5651 5649 5648 5646 5644 5643 5642 5641 5640 5639 5638 5638 5638 5637 5636 5634 5634 5632 5631 5629 5629 5628 5627 5625 5624 5623 5622 5620 5617 5613 5609 5606 5603 5602 5600 5596 5595 5594 5593 5591 5589 5588 5586
5646 5644 5643 5641 5639 5637 5636 5635 5634 5632 5631 5631 5632 5631 5630 5628 5629 5627 5624 5623 5622 5622 5622 5621 5621 5619 5618 5616 5613 5608 5603 5599 5595 5595 5595 5592 5590 5588 5587 5586 5585 5583 5580
5641 5639 5637 5635 5633 5632 5631 5629 5627 5625 5624 5624 5624 5625 5625 5623 5622 5621 5618 5617 5615 5615 5615 5614 5613 5613 5612 5610 5608 5604 5600 5595 5591 5589 5590 5587 5585 5583 5580 5581 5579 5577 5575